SCP
0 0 -0 -0 -0 -0 0 0 0 0 0 0 0 0 0 0 0 0 0 0 0 0 0 0 0 0 0 0 0 0 0 0 0 0 0 0 0 0 0 0 0 0 0 0 0 0 0 0 0
0 0 -0 -0 -0 -0 0 0 0 0 0 0 0 0 0 0 0 0 0 0 0 0 0 0 0 0 0 0 0 0 0 0 0 0 0 0 0 0 0 0 0 0 0 0 0 0 0 0 0
-0 -0 -0 0 0 0 -0 -0 -0 -0 0 0 0 0 0 0 0 0 0 0 0 0 0 0 0 0 0 0 0 0 0 0 0 0 0 0 0 0 0 0 0 0 0 0 0 0 0 0 0
-0 -0 -0 0 0 0 -0 -0 -0 -0 0 0 0 0 0 0 0 0 0 0 0 0 0 0 0 0 0 0 0 0 0 0 0 0 0 0 0 0 0 0 0 0 0 0 0 0 0 0 0
0 0 0 0 0 0 -0 -0 -0 0 0 0 0 0 0 0 0 0 0 0 0 0 0 0 0 0 0 0 0 0 0 0 0 0 0 0 0 0 0 0 0 0 0 0 0 0 0 0 0
0 0 0 0 0 0 0 0 0 0 0 0 0 0 0 0 0 0 0 0 0 0 0 0 0 0 0 0 0 0 0 0 0 0 0 0 0 0 0 0 0 0 0 0 0 0 0 0 0
0 0 0 0 0 0 0 0 0 0 0 0 0 0 0 0 0 0 0 0 0 0 0 0 0 0 0 0 0 0 0 0 0 0 0 0 0 0 0 0 0 0 0 0 0 0 0 0 0
0 0 0 0 0 0 0 0 0 0 0 0 0 0 0 0 0 0 0 0 0 0 0 0 0 0 0 0 0 0 0 0 0 0 0 0 0 0 0 0 0 0 0 0 0 0 0 0 0
0 0 0 0 0 0 0 0 0 0 0 0 0 0 0 0 0 0 0 0 0 0 0 0 0 0 0 0 0 0 0 0 0 0 0 0 0 0 0 0 0 0 0 0 0 0 0 0 0
0 0 0 0 0 0 0 0 0 0 0 0 0 0 0 0 0 0 0 0 0 0 0 0 0 0 0 0 0 0 0 0 0 0 0 0 0 0 0 0 0 0 0 0 0 0 0 0 0
0 0 0 0 0 0 0 0 0 0 0 0 0 0 0 0 0 0 0 0 0 0 0 0 0 0 0 0 0 0 0 0 0 0 0 0 0 0 0 0 0 0 0 0 0 0 0 0 0
0 0 0 0 0 0 0 0 0 0 0 0 0 0 0 0 0 0 0 0 0 0 0 0 0 0 0 0 0 0 0 0 0 0 0 0 0 0 0 0 0 0 0 0 0 0 0 0 0
0 0 0 0 0 0 0 0 0 0 0 0 0 0 0 0 0 0 0 0 0 0 0 0 0 0 0 0 0 0 0 0 0 0 0 0 0 0 0 0 0 0 0 0 0 0 0 0 0
0 0 0 0 0 0 0 0 0 0 0 0 0 0 0 0 0 0 0 0 0 0 0 0 0 0 0 0 0 0 0 0 0 0 0 0 0 0 0 0 0 0 0 0 0 0 0 0 0
0 0 0 0 0 0 0 0 0 0 0 0 0 0 0 0 0 0 0 0 0 0 0 0 0 0 0 0 0 0 0 0 0 0 0 0 0 0 0 0 0 0 0 0 0 0 0 0 0
0 0 0 0 0 0 0 0 0 0 0 0 0 0 0 0 0 0 0 0 0 0 0 0 0 0 0 0 0 0 0 0 0 0 0 0 0 0 0 0 0 0 0 0 0 0 0 0 0
0 0 0 0 0 0 0 0 0 0 0 0 0 0 0 0 0 0 0 0 0 0 0 0 0 0 0 0 0 0 0 0 0 0 0 0 0 0 0 0 0 0 0 0 0 0 0 0 0
0 0 0 0 0 0 0 0 0 0 0 0 0 0 0 0 0 0 0 0 0 0 0 0 0 0 0 0 0 0 0 0 0 0 0 0 0 0 0 0 0 0 0 0 0 0 0 0 0
0 0 0 0 0 0 0 0 0 0 0 0 0 0 0 0 0 0 0 0 0 0 0 0 0 0 0 0 0 0 0 0 0 0 0 0 0 0 0 0 0 0 0 0 0 0 0 0 0
0 0 0 0 0 0 0 0 0 0 0 0 0 0 0 0 0 0 0 0 0 0 0 0 0 0 0 0 0 0 0 0 0 0 0 0 0 0 0 0 0 0 0 0 0 0 0 0 0
0 0 0 0 0 0 0 0 0 0 0 0 0 0 0 0 0 0 0 0 0 0 0 0 0 0 0 0 0 0 0 0 0 0 0 0 0 0 0 0 0 0 0 0 0 0 0 0 0
0 0 0 0 0 0 0 0 0 0 0 0 0 0 0 0 0 0 0 0 0 0 0 0 0 0 0 0 0 0 0 0 0 0 0 0 0 0 0 0 0 0 0 0 0 0 0 0 0
0 0 0 0 0 0 0 0 0 0 0 0 0 0 0 0 0 0 0 0 0 0 0 0 0 0 0 0 0 0 0 0 0 0 0 0 0 0 0 0 0 0 0 0 0 0 0 0 0
0 0 0 0 0 0 0 0 0 0 0 0 0 0 0 0 0 0 0 0 0 0 0 0 0 0 0 0 0 0 0 0 0 0 0 0 0 0 0 0 0 0 0 0 0 0 0 0 0
0 0 0 0 0 0 0 0 0 0 0 0 0 0 0 0 0 0 0 0 0 0 0 0 0 0 0 0 0 0 0 0 0 0 0 0 0 0 0 0 0 0 0 0 0 0 0 0 0
0 0 0 0 0 0 0 0 0 0 0 0 0 0 0 0 0 0 0 0 0 0 0 0 0 0 0 0 0 0 0 0 0 0 0 0 0 0 0 0 0 0 0 0 0 0 0 0 0
0 0 0 0 0 0 0 0 0 0 0 0 0 0 0 0 0 0 0 0 0 0 0 0 0 0 0 0 0 0 0 0 0 0 0 0 0 0 0 0 0 0 0 0 0 0 0 0 0
0 0 0 0 0 0 0 0 0 0 0 0 0 0 0 0 0 0 0 0 0 0 0 0 0 0 0 0 0 0 0 0 0 0 0 0 0 0 0 0 0 0 0 0 0 0 0 0 0
0 0 0 0 0 0 0 0 0 0 0 0 0 0 0 0 0 0 0 0 0 0 0 0 0 0 0 0 0 0 0 0 0 0 0 0 0 0 0 0 0 0 0 0 0 0 0 0 0
0 0 0 0 0 0 0 0 0 0 0 0 0 0 0 0 0 0 0 0 0 0 0 0 0 0 0 0 0 0 0 0 0 0 0 0 0 0 0 0 0 0 0 0 0 0 0 0 0
Wind_Speed
6 4 2 4 7 5 0 2 2 1 2 1 2 5 8 5 3 2 0 8 7 9 9 12 16 14 13 12 12 11 10 9 9 9 10 10 10 10 10 11 11 11 12 13 13 12 12 12 13
2 2 5 6 6 2 3 3 3 4 3 3 3 3 3 1 1 2 2 7 7 10 9 8 16 15 14 13 12 11 10 9 9 9 9 9 9 9 10 10 11 11 11 11 12 12 12 12 12
1 3 5 5 4 5 4 4 5 2 3 3 3 1 3 2 2 4 4 8 7 9 8 10 17 16 15 14 12 12 10 9 9 9 9 9 9 9 9 9 10 10 10 11 11 11 11 11 11
2 4 6 5 2 5 4 3 3 1 2 2 4 2 1 0 1 2 6 9 9 8 7 10 17 16 15 14 13 12 10 9 9 8 8 8 8 8 8 8 9 9 9 10 10 10 10 10 10
4 5 5 2 3 3 4 3 3 2 3 2 4 4 2 1 2 5 9 10 11 8 6 8 17 16 15 14 13 12 10 9 9 8 7 7 7 7 7 7 7 7 8 8 9 9 9 9 9
5 5 4 1 3 4 3 2 3 2 2 3 6 5 2 1 3 5 8 9 9 9 7 7 16 15 15 14 13 12 10 9 8 8 7 7 6 6 6 6 6 6 7 7 7 7 8 8 8
5 5 4 2 2 3 2 1 4 3 3 4 7 6 2 1 3 6 6 7 7 7 7 5 7 10 14 14 13 12 11 10 8 7 7 6 5 5 4 4 4 4 4 5 5 6 6 6 7
4 5 3 1 1 3 2 1 2 3 2 1 4 6 5 3 7 7 7 6 6 6 6 6 5 6 6 8 12 12 11 10 9 8 6 6 4 3 2 2 1 1 2 3 4 4 5 6 6
4 5 1 2 3 3 1 1 1 1 3 0 1 2 0 7 9 8 5 4 5 7 6 5 5 6 6 5 8 9 10 9 8 6 7 5 2 2 2 1 2 2 3 3 4 5 6 6 6
4 3 4 3 3 2 1 1 1 2 1 1 2 1 3 6 9 9 9 10 11 11 9 6 6 6 6 5 4 3 4 4 4 3 4 3 3 1 1 1 3 4 5 5 6 7 7 5 3
3 4 3 2 2 2 1 1 1 3 4 7 7 6 6 6 7 9 9 10 11 10 10 8 7 6 6 4 3 2 2 2 3 4 4 3 3 1 1 0 2 2 3 2 3 4 2 2 2
1 2 3 2 1 1 2 2 2 5 9 6 6 5 7 8 10 11 10 9 8 8 11 9 8 7 7 5 4 3 3 2 2 3 4 3 2 2 2 2 2 1 1 2 2 2 3 3 3
2 3 2 3 3 3 3 5 5 7 7 2 2 5 8 9 8 7 5 6 7 9 11 11 10 9 7 5 4 4 4 4 4 3 4 4 3 3 3 2 2 2 2 2 2 3 3 3 3
2 2 3 4 4 3 5 6 4 11 5 3 4 6 7 8 7 5 5 6 8 10 11 11 11 10 8 6 5 4 4 3 3 3 4 5 4 4 3 3 2 3 3 3 2 3 3 3 3
1 3 6 4 3 3 3 7 9 9 3 5 6 6 6 6 5 6 6 7 8 8 10 11 11 10 9 8 6 4 4 4 3 3 4 4 4 4 3 3 3 3 2 2 2 2 1 2 2
3 3 4 6 2 1 4 10 11 3 6 8 7 6 6 6 6 5 5 5 6 6 9 11 10 10 9 7 6 4 4 4 3 3 3 4 4 4 3 2 2 2 1 1 1 1 1 2 2
3 2 4 7 2 1 4 9 9 1 5 8 7 7 6 6 5 4 3 4 4 7 9 10 10 10 9 7 5 4 3 3 2 2 2 2 3 3 2 2 1 1 1 1 0 0 0 2 3
4 4 4 5 4 2 5 11 13 5 6 9 8 7 7 8 7 3 2 2 2 5 7 9 8 8 8 6 4 3 3 2 2 1 1 2 2 2 2 1 1 2 1 1 1 1 1 1 2
3 3 5 7 5 3 9 13 16 10 7 10 10 9 10 9 4 2 1 1 3 4 6 8 9 8 8 5 5 4 3 2 2 2 2 2 2 3 3 2 2 2 2 1 1 1 2 2 2
3 3 6 7 4 4 7 13 13 10 10 11 11 11 11 8 5 4 3 2 3 4 6 7 8 9 8 5 4 3 4 3 2 2 3 3 3 3 3 3 2 2 2 2 2 2 1 1 2
4 5 6 6 6 4 5 11 9 7 5 6 7 8 8 11 10 7 5 4 4 4 6 7 7 8 7 7 5 4 4 3 2 2 2 2 3 3 3 3 3 3 2 2 1 1 1 0 1
6 7 6 4 2 5 2 7 10 7 8 7 7 6 8 8 8 7 7 5 5 4 4 6 7 7 7 7 7 6 4 3 3 2 2 2 3 3 3 3 3 3 2 2 1 1 1 1 1
7 1 2 1 2 3 2 4 12 6 8 8 6 7 7 7 8 8 7 6 5 4 5 6 7 6 6 6 7 7 5 4 3 3 3 2 2 3 3 3 3 2 1 1 0 0 1 2 2
5 5 5 5 3 4 5 5 11 6 6 7 5 4 6 7 7 7 6 6 5 4 5 6 7 6 5 6 6 7 8 6 5 4 3 2 1 1 2 3 2 2 1 0 0 1 1 2 2
5 5 3 4 2 7 2 4 13 10 7 7 9 7 6 7 8 8 8 8 7 7 6 6 7 6 6 6 6 6 7 7 6 5 4 3 1 1 0 1 1 0 0 1 1 1 2 2 3
6 9 7 5 5 5 2 7 12 8 7 6 6 4 5 7 8 8 9 8 8 8 7 7 8 7 6 6 6 5 6 4 4 4 4 3 2 2 1 1 1 0 1 1 1 1 2 3 3
7 5 6 5 2 4 7 8 13 6 4 4 3 0 4 7 8 8 8 8 8 8 8 8 8 7 7 7 6 6 5 5 5 4 3 2 2 2 2 1 1 1 1 2 2 2 3 3 4
7 9 6 5 4 5 6 6 7 7 6 6 4 3 5 6 7 7 7 8 7 7 7 7 7 8 7 7 6 5 5 5 5 4 4 3 3 2 2 1 1 2 2 3 3 3 4 4 5
6 5 5 5 5 5 4 8 7 6 5 7 7 5 6 7 8 8 7 7 7 6 7 7 7 7 6 7 6 6 5 4 4 4 4 3 2 2 2 2 2 3 3 3 3 4 5 5 6
7 9 9 7 6 5 4 10 7 5 6 6 6 4 4 6 6 7 7 7 7 8 7 8 7 7 7 7 6 6 5 5 4 4 3 3 3 3 3 3 3 4 4 4 5 6 6 6 7
Wind_Direction
346 352 51 55 54 52 217 249 228 238 247 235 137 144 147 155 162 183 298 148 143 149 168 174 162 159 153 145 136 131 125 116 110 104 98 90 85 80 76 73 70 67 64 62 60 59 57 56 53
346 5 54 61 84 88 265 242 218 217 196 119 92 110 120 148 144 137 150 172 150 153 164 168 163 160 156 148 143 139 133 125 118 112 104 96 89 84 80 75 72 69 66 64 62 60 59 57 54
335 43 82 77 113 178 218 222 212 231 164 144 118 111 152 162 166 181 183 160 144 153 161 168 163 162 159 154 150 146 141 136 129 121 110 102 94 88 83 78 74 71 67 64 62 60 58 57 54
74 49 57 80 179 214 222 235 202 174 151 153 136 125 250 328 192 175 141 145 143 153 159 171 165 164 162 158 155 150 148 144 137 126 116 107 100 93 86 81 76 71 67 64 60 58 55 52 49
60 77 68 63 247 249 242 244 174 193 180 166 145 152 212 22 75 126 141 146 148 152 159 175 168 168 165 163 160 157 156 151 142 134 126 117 107 99 92 84 76 70 65 60 56 53 50 47 44
58 69 92 198 270 282 267 193 149 199 183 154 148 156 227 70 121 144 146 146 149 152 158 174 173 172 170 168 166 163 163 160 152 145 139 128 118 111 102 89 77 66 59 53 48 46 43 40 38
101 98 144 186 277 295 287 154 160 183 186 195 163 150 260 246 136 132 130 130 140 150 157 179 175 174 175 173 172 170 167 166 161 156 150 140 130 124 115 100 83 64 53 45 37 32 29 27 25
118 102 116 185 227 268 305 154 162 169 191 136 149 158 219 195 125 110 105 117 138 156 166 178 173 165 167 173 176 172 172 173 170 164 155 149 143 127 115 102 89 39 24 18 12 7 5 7 5
86 78 150 209 205 258 311 108 21 125 120 105 236 206 167 123 123 116 115 131 160 176 182 179 172 164 162 167 179 173 176 179 175 166 163 148 111 78 56 57 262 287 310 325 335 341 348 2 360
86 127 217 222 210 229 281 189 217 125 142 249 266 219 109 134 147 155 166 175 183 189 190 185 176 168 164 170 164 160 163 166 157 144 145 132 136 145 147 302 295 298 310 318 324 333 356 12 355
130 181 230 253 229 220 240 249 213 171 233 224 218 204 158 165 172 181 186 186 191 189 190 187 180 171 168 165 154 152 147 147 152 156 152 144 144 156 166 272 307 316 319 329 329 338 335 323 311
159 227 224 253 237 212 229 248 240 209 228 232 219 179 172 182 191 196 196 194 183 183 194 189 181 175 174 166 161 161 159 161 165 169 163 155 165 188 204 219 236 249 252 258 269 279 287 290 287
214 253 245 253 262 247 245 242 245 247 244 253 171 165 186 196 207 211 204 191 184 191 194 191 183 181 175 168 168 167 174 177 179 177 179 177 182 201 208 219 221 232 227 232 245 254 269 278 283
269 284 296 278 254 239 225 251 235 252 231 205 195 201 206 207 212 210 206 201 197 198 195 190 187 183 174 175 174 173 180 181 180 188 196 192 193 199 204 218 225 233 229 231 237 252 263 271 277
349 335 319 288 243 247 208 274 239 244 178 213 220 220 221 226 222 219 218 212 204 200 191 189 188 180 178 179 179 174 177 175 185 198 201 198 199 201 200 209 224 233 227 231 240 263 268 282 289
47 21 307 293 279 235 171 262 270 239 187 224 230 230 229 232 228 233 236 230 211 193 185 186 184 178 179 177 173 169 172 177 190 193 195 202 203 200 194 203 226 223 190 188 236 275 294 297 303
20 302 270 296 279 178 204 256 277 184 196 233 236 232 233 241 243 239 245 239 213 191 179 177 175 174 174 167 160 157 156 168 178 173 179 192 191 183 177 188 203 146 116 94 37 28 321 308 313
239 238 259 271 283 215 243 259 272 257 221 240 240 233 231 233 236 233 245 249 195 173 166 166 161 160 153 143 131 124 122 126 120 127 133 132 127 133 136 126 100 98 96 62 45 16 350 306 311
186 219 262 264 272 257 255 264 272 269 239 241 237 227 226 229 226 195 172 127 123 138 149 156 153 152 148 145 145 140 139 126 105 94 93 95 96 99 105 102 90 88 92 77 57 43 13 351 350
203 250 269 283 284 241 275 276 269 260 241 230 227 222 218 214 200 190 174 150 146 146 148 149 152 154 156 151 140 130 127 121 110 92 75 69 86 95 105 110 104 93 91 68 55 58 42 354 18
215 216 240 263 315 324 321 300 289 285 262 256 236 224 210 200 197 187 177 169 154 155 157 153 152 150 146 136 119 101 90 85 87 82 72 49 75 90 99 107 106 98 99 93 74 94 109 328 335
241 229 222 254 306 299 356 301 291 284 296 274 251 229 215 199 185 180 175 170 169 164 148 139 141 141 142 143 145 144 144 146 154 139 113 72 69 83 94 102 103 101 100 98 87 114 149 160 268
212 176 158 226 214 298 286 245 283 304 290 283 266 235 218 198 183 179 175 168 159 151 142 135 131 133 140 144 145 137 128 129 123 111 104 84 65 74 86 97 99 98 98 105 112 114 175 184 203
141 78 59 48 75 279 239 202 278 265 251 288 296 253 214 191 178 170 159 147 145 142 138 138 135 132 138 138 139 141 141 140 136 133 129 112 85 71 76 93 96 101 107 124 222 218 221 219 222
122 103 8 336 340 252 241 215 254 259 256 261 279 275 213 184 173 169 167 167 163 161 157 152 145 140 142 139 140 145 146 148 151 153 153 150 142 138 111 96 99 102 258 269 255 249 259 240 235
175 153 171 220 240 283 269 239 257 265 278 280 278 263 190 181 182 183 182 176 172 171 167 161 155 149 150 147 144 142 143 143 148 154 155 162 171 183 181 158 166 243 280 284 270 260 259 245 246
148 192 172 144 203 266 271 279 297 288 294 306 324 252 197 193 190 188 184 181 178 177 177 171 162 155 159 154 145 145 147 148 151 152 151 159 175 182 177 177 210 262 272 270 264 256 264 260 253
151 148 120 147 196 247 276 271 258 297 316 320 308 267 229 205 197 194 190 188 185 182 176 169 166 164 161 156 154 152 154 154 152 151 162 173 182 180 181 209 240 263 269 267 261 263 264 263 262
137 147 148 152 171 181 255 268 233 246 283 295 292 269 227 209 203 199 195 188 180 174 172 173 171 161 160 160 154 149 154 154 153 163 177 182 186 193 212 232 249 262 269 268 262 263 267 264 267
171 173 153 167 211 192 204 267 266 253 272 274 284 278 234 213 205 197 188 179 179 182 181 180 176 172 169 161 155 157 157 156 164 178 189 189 202 217 229 241 255 264 267 266 261 267 268 263 265